Location: The C. Gantt Observatory
(33.6981°N, 81.6836°W)
Time: 00:53:44
(UTC-04:00)

Iridium 30 - Visible Passes

Search period start: 29 July 2015 00:00
Search period end: 08 August 2015 00:00
Orbit: 776 x 779 km, 86.4° (Epoch: 28 July)

Date Brightness Start Highest point End Pass type
(mag) Time Alt. Az. Time Alt. Az. Time Alt. Az.
29 Jul 8.5 05:57:56 10° NE 06:01:18 18° ENE 06:04:52 10° ESE visible
01 Aug 8.0 05:57:19 10° NNE 06:01:35 26° E 06:05:58 10° SE visible
02 Aug 8.6 05:25:19 10° NE 05:27:43 14° ENE 05:30:24 10° ESE visible
04 Aug 7.1 05:56:58 10° NNE 06:01:49 39° E 06:06:42 10° SSE visible
05 Aug 8.2 05:24:19 10° NNE 05:28:03 20° ENE 05:31:58 10° SE visible
07 Aug 6.2 05:56:51 10° N 06:01:59 59° E 06:07:08 10° SSE visible
